IBE09FC LDSP-LEMD

Flight info

Callsign IBE09FC
Flight time 2h 41m
Altitude 37000
Route TORPO M730 LISKO DCT GEKBA DCT VAMTU DCT KOLON DCT GANGU DCT PADKO DCT DIVKO DCT NILDU DCT NENDA N975 ADUXO
Aircraft A320/M-SDE3FGHIRWY/LB1

Departure

Time 2026-05-05 07:24
Airport Split Saint Jerome Airport (LDSP)

Arrival

Time 2026-05-05 10:05
Airport Adolfo Suárez Madrid–Barajas Airport (LEMD)
Time Latitude Longitude Altitude Speed Heading
2026-05-05 06:48 43.53828 16.30051 68 ft 0 kts 114°
2026-05-05 07:15 43.53829 16.30053 68 ft 0 kts 99°
2026-05-05 07:15 43.53832 16.30056 68 ft 0 kts 58°
2026-05-05 07:15 43.53836 16.30055 58 ft 1 kts 14°
2026-05-05 07:16 43.53839 16.30049 58 ft 1 kts 317°
2026-05-05 07:16 43.53838 16.30038 58 ft 3 kts 276°
2026-05-05 07:16 43.53843 16.29987 66 ft 8 kts 279°
2026-05-05 07:16 43.53828 16.29919 63 ft 7 kts 236°
2026-05-05 07:17 43.53801 16.29873 65 ft 5 kts 232°
2026-05-05 07:17 43.53781 16.29837 64 ft 4 kts 232°
2026-05-05 07:17 43.53759 16.29797 63 ft 7 kts 233°
2026-05-05 07:17 43.53730 16.29745 64 ft 6 kts 233°
2026-05-05 07:18 43.53708 16.29704 60 ft 5 kts 233°
2026-05-05 07:18 43.53694 16.29678 64 ft 2 kts 233°
2026-05-05 07:18 43.53688 16.29668 62 ft 0 kts 233°
2026-05-05 07:19 43.53682 16.29648 61 ft 4 kts 255°
2026-05-05 07:19 43.53682 16.29634 63 ft 0 kts 270°
2026-05-05 07:19 43.53683 16.29629 70 ft 1 kts 277°
2026-05-05 07:20 43.53686 16.29612 67 ft 2 kts 283°
2026-05-05 07:20 43.53689 16.29591 72 ft 3 kts 282°
2026-05-05 07:20 43.53695 16.29540 73 ft 8 kts 276°
2026-05-05 07:20 43.53692 16.29459 81 ft 12 kts 259°
2026-05-05 07:21 43.53637 16.29333 85 ft 17 kts 232°
2026-05-05 07:21 43.53589 16.29246 85 ft 17 kts 232°
2026-05-05 07:21 43.53515 16.29113 87 ft 18 kts 232°
2026-05-05 07:21 43.53412 16.28929 89 ft 18 kts 232°
2026-05-05 07:22 43.53361 16.28838 87 ft 17 kts 232°
2026-05-05 07:22 43.53266 16.28669 86 ft 12 kts 231°
2026-05-05 07:22 43.53199 16.28613 83 ft 11 kts 209°
2026-05-05 07:22 43.53217 16.28566 86 ft 6 kts 27°
2026-05-05 07:23 43.53229 16.28595 85 ft 4 kts 54°
2026-05-05 07:23 43.53232 16.28600 86 ft 2 kts 52°
2026-05-05 07:23 43.53401 16.28905 91 ft 77 kts 52°
2026-05-05 07:23 43.53857 16.29727 73 ft 136 kts 52°
2026-05-05 07:24 43.54507 16.30911 353 ft 159 kts 54°
2026-05-05 07:24 43.55164 16.32091 1125 ft 155 kts 56°
2026-05-05 07:24 43.55646 16.33414 1674 ft 160 kts 84°
2026-05-05 07:24 43.55556 16.34983 2058 ft 171 kts 114°
2026-05-05 07:25 43.54835 16.36301 2623 ft 178 kts 144°
2026-05-05 07:25 43.53668 16.36883 3189 ft 183 kts 172°
2026-05-05 07:25 43.52417 16.37189 3779 ft 183 kts 158°
2026-05-05 07:25 43.51285 16.37941 4343 ft 184 kts 153°
2026-05-05 07:26 43.50149 16.38750 4940 ft 184 kts 154°
2026-05-05 07:26 43.49007 16.39576 5421 ft 188 kts 154°
2026-05-05 07:26 43.47840 16.40424 5512 ft 188 kts 154°
2026-05-05 07:26 43.46620 16.41056 5504 ft 184 kts 177°
2026-05-05 07:27 43.45388 16.40649 5516 ft 194 kts 211°
2026-05-05 07:27 43.44398 16.39205 5672 ft 222 kts 229°
2026-05-05 07:27 43.43400 16.37431 5981 ft 246 kts 229°
2026-05-05 07:27 43.42334 16.35512 6448 ft 262 kts 230°
2026-05-05 07:28 43.41222 16.33496 7203 ft 267 kts 230°
2026-05-05 07:28 43.40095 16.31456 8014 ft 269 kts 230°
2026-05-05 07:28 43.38955 16.29402 8825 ft 272 kts 231°
2026-05-05 07:28 43.37799 16.27327 9677 ft 274 kts 231°
2026-05-05 07:29 43.36631 16.25229 10344 ft 283 kts 231°
2026-05-05 07:29 43.35396 16.22996 10545 ft 306 kts 233°
2026-05-05 07:29 43.34458 16.20246 10693 ft 332 kts 255°
2026-05-05 07:29 43.34374 16.16998 11062 ft 350 kts 276°
2026-05-05 07:30 43.34814 16.13675 11669 ft 356 kts 278°
2026-05-05 07:30 43.35717 16.06940 13021 ft 362 kts 278°
2026-05-05 07:30 43.36173 16.03521 13680 ft 365 kts 278°
2026-05-05 07:31 43.36631 16.00074 14300 ft 368 kts 278°
2026-05-05 07:31 43.37094 15.96599 14865 ft 372 kts 278°
2026-05-05 07:31 43.37560 15.93093 15452 ft 374 kts 277°
2026-05-05 07:31 43.38025 15.89565 16023 ft 377 kts 278°
2026-05-05 07:32 43.38493 15.86002 16552 ft 381 kts 278°
2026-05-05 07:32 43.38964 15.82410 17110 ft 384 kts 279°
2026-05-05 07:32 43.39439 15.78783 17620 ft 387 kts 279°
2026-05-05 07:32 43.39921 15.75125 18114 ft 391 kts 279°
2026-05-05 07:33 43.40405 15.71430 18584 ft 394 kts 279°
2026-05-05 07:33 43.40887 15.67719 19104 ft 394 kts 279°
2026-05-05 07:33 43.41365 15.64018 19674 ft 393 kts 279°
2026-05-05 07:33 43.41846 15.60291 20073 ft 397 kts 279°
2026-05-05 07:34 43.42329 15.56540 20519 ft 400 kts 279°
2026-05-05 07:34 43.42817 15.52765 20946 ft 402 kts 279°
2026-05-05 07:34 43.43307 15.48971 21430 ft 403 kts 279°
2026-05-05 07:34 43.43794 15.45166 21891 ft 405 kts 278°
2026-05-05 07:35 43.44279 15.41346 22347 ft 406 kts 278°
2026-05-05 07:35 43.44765 15.37510 22804 ft 407 kts 278°
2026-05-05 07:35 43.45250 15.33661 23258 ft 408 kts 278°
2026-05-05 07:35 43.45735 15.29806 23685 ft 409 kts 278°
2026-05-05 07:36 43.46223 15.25943 24036 ft 411 kts 278°
2026-05-05 07:36 43.46713 15.22052 24342 ft 414 kts 278°
2026-05-05 07:36 43.47206 15.18141 24660 ft 416 kts 278°
2026-05-05 07:36 43.47698 15.14211 24988 ft 417 kts 278°
2026-05-05 07:37 43.48190 15.10266 25319 ft 419 kts 278°
2026-05-05 07:37 43.48680 15.06301 25641 ft 421 kts 278°
2026-05-05 07:37 43.49175 15.02320 25950 ft 423 kts 278°
2026-05-05 07:37 43.49665 14.98376 26267 ft 424 kts 278°
2026-05-05 07:38 43.50162 14.94363 26570 ft 426 kts 278°
2026-05-05 07:38 43.50663 14.90284 26868 ft 428 kts 278°
2026-05-05 07:38 43.51160 14.86227 27111 ft 431 kts 278°
2026-05-05 07:38 43.51657 14.82148 27376 ft 433 kts 278°
2026-05-05 07:39 43.52154 14.78049 27640 ft 435 kts 278°
2026-05-05 07:39 43.52647 14.73985 27897 ft 437 kts 278°
2026-05-05 07:39 43.53148 14.69849 28165 ft 438 kts 278°
2026-05-05 07:39 43.53649 14.65697 28431 ft 440 kts 278°
2026-05-05 07:40 43.54153 14.61529 28679 ft 442 kts 278°
2026-05-05 07:40 43.54655 14.57345 29000 ft 442 kts 278°
2026-05-05 07:40 43.55154 14.53168 29362 ft 441 kts 278°
2026-05-05 07:40 43.55650 14.49002 29740 ft 440 kts 278°
2026-05-05 07:41 43.56142 14.44843 30110 ft 439 kts 278°
2026-05-05 07:41 43.56472 14.40681 30421 ft 437 kts 271°
2026-05-05 07:41 43.56569 14.36503 30746 ft 435 kts 271°
2026-05-05 07:41 43.56668 14.32342 31093 ft 433 kts 271°
2026-05-05 07:42 43.56771 14.28201 31455 ft 431 kts 271°
2026-05-05 07:42 43.56874 14.24081 31801 ft 429 kts 271°
2026-05-05 07:42 43.56975 14.19980 32172 ft 427 kts 271°
2026-05-05 07:42 43.57076 14.15897 32495 ft 426 kts 271°
2026-05-05 07:43 43.57333 14.11839 32823 ft 425 kts 278°
2026-05-05 07:43 43.57890 14.07838 33137 ft 424 kts 279°
2026-05-05 07:43 43.58450 14.03856 33470 ft 422 kts 279°
2026-05-05 07:43 43.59002 13.99888 33811 ft 420 kts 279°
2026-05-05 07:44 43.59545 13.95936 34145 ft 419 kts 279°
2026-05-05 07:44 43.60082 13.91997 34427 ft 417 kts 279°
2026-05-05 07:44 43.60618 13.88067 34681 ft 417 kts 279°
2026-05-05 07:44 43.61149 13.84145 34944 ft 416 kts 279°
2026-05-05 07:45 43.61681 13.80215 35132 ft 417 kts 279°
2026-05-05 07:45 43.62215 13.76281 35325 ft 417 kts 279°
2026-05-05 07:45 43.62753 13.72340 35558 ft 417 kts 279°
2026-05-05 07:45 43.63289 13.68410 35808 ft 417 kts 279°
2026-05-05 07:46 43.63819 13.64485 36059 ft 416 kts 279°
2026-05-05 07:46 43.64344 13.60555 36315 ft 416 kts 279°
2026-05-05 07:46 43.64868 13.56630 36575 ft 415 kts 279°
2026-05-05 07:46 43.65392 13.52715 36800 ft 414 kts 279°
2026-05-05 07:47 43.65915 13.48803 37014 ft 414 kts 279°
2026-05-05 07:47 43.66437 13.44886 37057 ft 416 kts 279°
2026-05-05 07:47 43.67473 13.37068 37057 ft 417 kts 279°
2026-05-05 07:48 43.68516 13.29192 37057 ft 417 kts 279°
2026-05-05 07:48 43.69556 13.21263 37054 ft 416 kts 278°
2026-05-05 07:49 43.70570 13.13443 37050 ft 417 kts 278°
2026-05-05 07:49 43.71593 13.05560 37041 ft 417 kts 278°
2026-05-05 07:50 43.72615 12.97667 37041 ft 417 kts 278°
2026-05-05 07:50 43.73623 12.89768 37042 ft 417 kts 278°
2026-05-05 07:51 43.74624 12.81868 37040 ft 417 kts 278°
2026-05-05 07:51 43.75627 12.73964 37054 ft 417 kts 278°
2026-05-05 07:52 43.76629 12.66056 37047 ft 417 kts 278°
2026-05-05 07:52 43.77615 12.58150 37042 ft 417 kts 278°
2026-05-05 07:53 43.78596 12.50250 37040 ft 417 kts 278°
2026-05-05 07:53 43.79580 12.42339 37042 ft 417 kts 278°
2026-05-05 07:54 43.80551 12.34411 37061 ft 417 kts 277°
2026-05-05 07:54 43.81514 12.26491 37060 ft 417 kts 277°
2026-05-05 07:55 43.82478 12.18595 37060 ft 416 kts 277°
2026-05-05 07:55 43.83436 12.10702 37057 ft 415 kts 277°
2026-05-05 07:56 43.84381 12.02820 37070 ft 415 kts 277°
2026-05-05 07:56 43.85324 11.94927 37070 ft 415 kts 277°
2026-05-05 07:57 43.86261 11.87046 37063 ft 414 kts 277°
2026-05-05 07:57 43.87190 11.79172 37060 ft 414 kts 276°
2026-05-05 07:58 43.88113 11.71285 37063 ft 415 kts 276°
2026-05-05 07:58 43.89021 11.63448 37067 ft 414 kts 276°
2026-05-05 07:59 43.89941 11.55511 37055 ft 414 kts 276°
2026-05-05 07:59 43.90855 11.47619 37051 ft 415 kts 276°
2026-05-05 08:00 43.91750 11.39763 37060 ft 415 kts 276°
2026-05-05 08:00 43.92646 11.31857 37059 ft 415 kts 276°
2026-05-05 08:01 43.93538 11.23954 37049 ft 415 kts 276°
2026-05-05 08:01 43.94429 11.16039 37045 ft 415 kts 276°
2026-05-05 08:02 43.95313 11.08123 37046 ft 415 kts 276°
2026-05-05 08:02 43.96187 11.00200 37051 ft 416 kts 276°
2026-05-05 08:03 43.97056 10.92267 37056 ft 415 kts 276°
2026-05-05 08:03 43.97925 10.84356 37060 ft 415 kts 276°
2026-05-05 08:04 43.98784 10.76436 37072 ft 415 kts 275°
2026-05-05 08:04 43.99633 10.68501 37073 ft 416 kts 275°
2026-05-05 08:05 44.00484 10.60564 37065 ft 415 kts 275°
2026-05-05 08:05 44.01325 10.52644 37058 ft 415 kts 275°
2026-05-05 08:06 44.02159 10.44722 37050 ft 414 kts 275°
2026-05-05 08:06 44.02995 10.36799 37022 ft 415 kts 275°
2026-05-05 08:07 44.03820 10.28875 37001 ft 414 kts 275°
2026-05-05 08:07 44.04637 10.20957 36990 ft 414 kts 275°
2026-05-05 08:08 44.05316 10.14371 37000 ft 414 kts 275°
2026-05-05 08:08 44.06255 10.05172 36992 ft 414 kts 275°
2026-05-05 08:09 44.06926 9.98534 36990 ft 413 kts 275°
2026-05-05 08:09 44.07727 9.90631 36986 ft 413 kts 275°
2026-05-05 08:10 44.08522 9.82722 37013 ft 413 kts 275°
2026-05-05 08:10 44.09303 9.74818 37004 ft 413 kts 274°
2026-05-05 08:11 44.10069 9.66972 36996 ft 413 kts 274°
2026-05-05 08:11 44.10846 9.59069 36987 ft 412 kts 274°
2026-05-05 08:12 44.11614 9.51182 36970 ft 411 kts 274°
2026-05-05 08:12 44.12372 9.43345 36980 ft 411 kts 274°
2026-05-05 08:13 44.13131 9.35465 36969 ft 411 kts 274°
2026-05-05 08:13 44.13877 9.27590 36968 ft 411 kts 274°
2026-05-05 08:14 44.14609 9.19776 36961 ft 411 kts 274°
2026-05-05 08:14 44.15349 9.11887 36959 ft 411 kts 274°
2026-05-05 08:15 44.16078 9.04001 36973 ft 411 kts 274°
2026-05-05 08:15 44.16798 8.96126 36968 ft 411 kts 274°
2026-05-05 08:16 44.17523 8.88244 36967 ft 411 kts 274°
2026-05-05 08:16 44.18249 8.80351 36971 ft 411 kts 274°
2026-05-05 08:17 44.18956 8.72460 36976 ft 411 kts 274°
2026-05-05 08:17 44.19654 8.64562 36981 ft 411 kts 273°
2026-05-05 08:18 44.20351 8.56658 36977 ft 411 kts 273°
2026-05-05 08:18 44.21054 8.48752 36980 ft 411 kts 273°
2026-05-05 08:19 44.21745 8.40848 36982 ft 411 kts 273°
2026-05-05 08:19 44.22425 8.32950 36998 ft 411 kts 273°
2026-05-05 08:20 44.23100 8.25036 36993 ft 411 kts 272°
2026-05-05 08:20 44.23776 8.17120 36993 ft 411 kts 272°
2026-05-05 08:21 44.24448 8.09205 36989 ft 411 kts 272°
2026-05-05 08:21 44.25110 8.01296 36989 ft 411 kts 272°
2026-05-05 08:22 44.25763 7.93383 37002 ft 411 kts 272°
2026-05-05 08:22 44.26283 7.85454 36991 ft 408 kts 264°
2026-05-05 08:23 44.25078 7.77864 36985 ft 400 kts 244°
2026-05-05 08:23 44.23711 7.74502 36982 ft 399 kts 233°
2026-05-05 08:23 44.21892 7.71580 36979 ft 400 kts 224°
2026-05-05 08:24 44.17718 7.66439 36973 ft 401 kts 223°
2026-05-05 08:24 44.13663 7.61132 36956 ft 399 kts 230°
2026-05-05 08:25 44.10030 7.55271 36964 ft 400 kts 230°
2026-05-05 08:25 44.06402 7.49469 36964 ft 401 kts 230°
2026-05-05 08:26 44.02738 7.43629 36973 ft 401 kts 230°
2026-05-05 08:26 43.99041 7.37751 36978 ft 401 kts 230°
2026-05-05 08:27 43.95375 7.31920 36977 ft 401 kts 230°
2026-05-05 08:27 43.91713 7.26100 36984 ft 400 kts 230°
2026-05-05 08:28 43.88077 7.20336 36986 ft 399 kts 230°
2026-05-05 08:28 43.84392 7.14526 36987 ft 399 kts 230°
2026-05-05 08:29 43.80759 7.08791 36976 ft 398 kts 230°
2026-05-05 08:30 43.75268 7.00160 36987 ft 398 kts 230°
2026-05-05 08:30 43.71929 6.94101 36985 ft 397 kts 242°
2026-05-05 08:31 43.69777 6.87080 36989 ft 397 kts 246°
2026-05-05 08:31 43.67702 6.80016 37002 ft 397 kts 246°
2026-05-05 08:32 43.65615 6.72972 36992 ft 396 kts 246°
2026-05-05 08:32 43.63529 6.65930 36970 ft 396 kts 246°
2026-05-05 08:33 43.61438 6.58899 36976 ft 396 kts 246°
2026-05-05 08:33 43.59343 6.51870 36979 ft 396 kts 246°
2026-05-05 08:34 43.57246 6.44840 37010 ft 396 kts 246°
2026-05-05 08:34 43.55146 6.37821 37001 ft 396 kts 246°
2026-05-05 08:35 43.53039 6.30818 36988 ft 395 kts 246°
2026-05-05 08:35 43.50937 6.23831 36981 ft 395 kts 246°
2026-05-05 08:36 43.48832 6.16844 36976 ft 395 kts 245°
2026-05-05 08:36 43.46713 6.09864 36932 ft 395 kts 245°
2026-05-05 08:37 43.44592 6.02885 36972 ft 395 kts 245°
2026-05-05 08:37 43.42477 5.95924 36966 ft 395 kts 245°
2026-05-05 08:38 43.40354 5.88958 36964 ft 395 kts 245°
2026-05-05 08:38 43.38237 5.82041 36960 ft 395 kts 245°
2026-05-05 08:39 43.36100 5.75093 36958 ft 395 kts 245°
2026-05-05 08:39 43.33962 5.68153 36975 ft 395 kts 245°
2026-05-05 08:40 43.31820 5.61196 36967 ft 396 kts 245°
2026-05-05 08:40 43.29671 5.54243 36955 ft 396 kts 245°
2026-05-05 08:41 43.27521 5.47289 36948 ft 396 kts 245°
2026-05-05 08:41 43.25383 5.40413 36950 ft 396 kts 245°
2026-05-05 08:42 43.23220 5.33484 36952 ft 396 kts 245°
2026-05-05 08:42 43.21055 5.26575 36982 ft 395 kts 245°
2026-05-05 08:43 43.18884 5.19659 36974 ft 395 kts 245°
2026-05-05 08:43 43.16730 5.12781 36967 ft 394 kts 245°
2026-05-05 08:44 43.14561 5.05888 36965 ft 394 kts 244°
2026-05-05 08:44 43.12388 4.99017 36964 ft 394 kts 244°
2026-05-05 08:45 43.10214 4.92140 36978 ft 394 kts 244°
2026-05-05 08:45 43.08033 4.85277 36975 ft 393 kts 244°
2026-05-05 08:46 43.05633 4.78588 36970 ft 391 kts 234°
2026-05-05 08:46 43.01944 4.73229 36970 ft 391 kts 223°
2026-05-05 08:47 42.97875 4.68320 36968 ft 391 kts 223°
2026-05-05 08:47 42.93796 4.63408 36965 ft 391 kts 223°
2026-05-05 08:48 42.89719 4.58491 36955 ft 391 kts 223°
2026-05-05 08:48 42.85641 4.53569 36977 ft 392 kts 223°
2026-05-05 08:49 42.81558 4.48656 36969 ft 392 kts 223°
2026-05-05 08:49 42.77468 4.43753 36967 ft 392 kts 223°
2026-05-05 08:50 42.73373 4.38867 36969 ft 392 kts 223°
2026-05-05 08:50 42.69279 4.33979 36971 ft 392 kts 223°
2026-05-05 08:51 42.65180 4.29099 36969 ft 392 kts 223°
2026-05-05 08:51 42.61077 4.24225 36974 ft 392 kts 223°
2026-05-05 08:52 42.56996 4.19381 36995 ft 392 kts 223°
2026-05-05 08:52 42.53567 4.15315 36959 ft 392 kts 222°
2026-05-05 08:53 42.48771 4.09642 36957 ft 392 kts 223°
2026-05-05 08:53 42.45358 4.05603 36960 ft 392 kts 223°
2026-05-05 08:54 42.41250 4.00751 36962 ft 392 kts 223°
2026-05-05 08:54 42.37139 3.95903 36965 ft 392 kts 222°
2026-05-05 08:55 42.33020 3.91065 36940 ft 392 kts 223°
2026-05-05 08:55 42.28902 3.86237 36950 ft 392 kts 223°
2026-05-05 08:56 42.25065 3.81047 36967 ft 390 kts 234°
2026-05-05 08:56 42.21937 3.75061 36975 ft 390 kts 234°
2026-05-05 08:57 42.18793 3.69093 36971 ft 390 kts 234°
2026-05-05 08:57 42.15659 3.63184 36968 ft 390 kts 234°
2026-05-05 08:58 42.12506 3.57237 36942 ft 390 kts 234°
2026-05-05 08:58 42.09350 3.51287 36945 ft 391 kts 234°
2026-05-05 08:59 42.06189 3.45330 36944 ft 391 kts 234°
2026-05-05 08:59 42.03031 3.39380 36944 ft 391 kts 234°
2026-05-05 09:00 41.99866 3.33436 36943 ft 391 kts 234°
2026-05-05 09:00 41.96688 3.27500 36947 ft 391 kts 234°
2026-05-05 09:01 41.93508 3.21574 36910 ft 391 kts 234°
2026-05-05 09:01 41.90330 3.15651 36914 ft 391 kts 234°
2026-05-05 09:02 41.87151 3.09724 36926 ft 391 kts 234°
2026-05-05 09:02 41.83965 3.03801 36961 ft 391 kts 234°
2026-05-05 09:03 41.80773 2.97888 36957 ft 391 kts 234°
2026-05-05 09:03 41.77586 2.91988 36949 ft 391 kts 234°
2026-05-05 09:04 41.74394 2.86087 36945 ft 391 kts 234°
2026-05-05 09:04 41.71198 2.80200 36946 ft 391 kts 234°
2026-05-05 09:05 41.67997 2.74326 36949 ft 391 kts 234°
2026-05-05 09:05 41.64688 2.68548 36948 ft 391 kts 233°
2026-05-05 09:06 41.61314 2.62848 36961 ft 391 kts 233°
2026-05-05 09:06 41.57956 2.57137 36951 ft 391 kts 233°
2026-05-05 09:07 41.54606 2.51408 36959 ft 391 kts 233°
2026-05-05 09:07 41.51287 2.45724 36937 ft 391 kts 233°
2026-05-05 09:08 41.47921 2.39973 36946 ft 391 kts 233°
2026-05-05 09:08 41.44595 2.34310 36956 ft 390 kts 233°
2026-05-05 09:09 41.41245 2.28617 36995 ft 390 kts 233°
2026-05-05 09:09 41.37897 2.22934 36996 ft 390 kts 233°
2026-05-05 09:10 41.34522 2.17225 36994 ft 389 kts 233°
2026-05-05 09:10 41.31456 2.11377 36956 ft 388 kts 244°
2026-05-05 09:11 41.29996 2.04459 36967 ft 389 kts 259°
2026-05-05 09:11 41.29185 1.97354 36974 ft 389 kts 258°
2026-05-05 09:12 41.28359 1.90247 36968 ft 389 kts 258°
2026-05-05 09:12 41.27530 1.83147 36975 ft 389 kts 258°
2026-05-05 09:13 41.26706 1.76043 36979 ft 389 kts 258°
2026-05-05 09:13 41.25870 1.68942 36976 ft 389 kts 258°
2026-05-05 09:14 41.25027 1.61847 36976 ft 389 kts 258°
2026-05-05 09:14 41.24187 1.54748 36969 ft 389 kts 258°
2026-05-05 09:15 41.23356 1.47703 36987 ft 389 kts 258°
2026-05-05 09:15 41.22514 1.40621 36976 ft 388 kts 258°
2026-05-05 09:16 41.21657 1.33541 36969 ft 388 kts 258°
2026-05-05 09:16 41.20800 1.26466 36964 ft 388 kts 258°
2026-05-05 09:17 41.19945 1.19385 36962 ft 388 kts 258°
2026-05-05 09:17 41.19085 1.12314 36973 ft 388 kts 258°
2026-05-05 09:18 41.18212 1.05235 36960 ft 389 kts 258°
2026-05-05 09:18 41.17332 0.98140 36962 ft 389 kts 258°
2026-05-05 09:19 41.16450 0.91049 36980 ft 389 kts 258°
2026-05-05 09:19 41.15570 0.83965 36978 ft 389 kts 258°
2026-05-05 09:20 41.14680 0.76880 36975 ft 389 kts 258°
2026-05-05 09:20 41.13781 0.69793 36976 ft 390 kts 258°
2026-05-05 09:21 41.12881 0.62692 36945 ft 391 kts 258°
2026-05-05 09:21 41.11978 0.55584 36956 ft 391 kts 258°
2026-05-05 09:22 41.11076 0.48473 36961 ft 391 kts 258°
2026-05-05 09:22 41.10175 0.41403 36966 ft 391 kts 258°
2026-05-05 09:23 41.09255 0.34291 36982 ft 392 kts 258°
2026-05-05 09:23 41.08327 0.27166 36976 ft 393 kts 258°
2026-05-05 09:24 41.07391 0.20031 36978 ft 393 kts 258°
2026-05-05 09:24 41.06449 0.12903 36979 ft 394 kts 258°
2026-05-05 09:25 41.05507 0.05758 36983 ft 394 kts 258°
2026-05-05 09:25 41.04563 -0.01388 37022 ft 394 kts 258°
2026-05-05 09:26 41.03608 -0.08532 37006 ft 394 kts 258°
2026-05-05 09:26 41.02649 -0.15678 36998 ft 394 kts 258°
2026-05-05 09:27 41.01688 -0.22816 36996 ft 394 kts 258°
2026-05-05 09:27 41.00550 -0.29895 36994 ft 392 kts 250°
2026-05-05 09:28 40.98709 -0.36686 36986 ft 392 kts 250°
2026-05-05 09:28 40.96873 -0.43488 36987 ft 392 kts 250°
2026-05-05 09:29 40.95042 -0.50284 36987 ft 392 kts 250°
2026-05-05 09:29 40.93195 -0.57082 36988 ft 393 kts 249°
2026-05-05 09:30 40.91335 -0.63863 36985 ft 392 kts 249°
2026-05-05 09:30 40.89473 -0.70648 36964 ft 392 kts 249°
2026-05-05 09:31 40.87619 -0.77418 37018 ft 392 kts 250°
2026-05-05 09:31 40.85774 -0.84137 37006 ft 391 kts 250°
2026-05-05 09:32 40.83911 -0.90874 37002 ft 390 kts 249°
2026-05-05 09:32 40.82043 -0.97595 37002 ft 390 kts 249°
2026-05-05 09:33 40.80180 -1.04305 37000 ft 389 kts 249°
2026-05-05 09:33 40.78316 -1.11015 37006 ft 389 kts 249°
2026-05-05 09:34 40.76445 -1.17721 37026 ft 389 kts 249°
2026-05-05 09:34 40.74565 -1.24422 37021 ft 389 kts 249°
2026-05-05 09:35 40.72684 -1.31116 37013 ft 389 kts 249°
2026-05-05 09:35 40.70808 -1.37788 36657 ft 387 kts 249°
2026-05-05 09:35 40.69874 -1.41102 36029 ft 385 kts 249°
2026-05-05 09:36 40.68946 -1.44402 35430 ft 383 kts 249°
2026-05-05 09:36 40.68024 -1.47679 34851 ft 380 kts 249°
2026-05-05 09:36 40.67104 -1.50936 34278 ft 378 kts 249°
2026-05-05 09:36 40.66193 -1.54160 33685 ft 375 kts 249°
2026-05-05 09:37 40.65284 -1.57367 32970 ft 373 kts 249°
2026-05-05 09:37 40.64374 -1.60565 32195 ft 372 kts 248°
2026-05-05 09:37 40.63465 -1.63755 31420 ft 372 kts 249°
2026-05-05 09:37 40.62557 -1.66947 30624 ft 372 kts 249°
2026-05-05 09:38 40.61649 -1.70139 29792 ft 372 kts 249°
2026-05-05 09:38 40.60739 -1.73326 28805 ft 373 kts 248°
2026-05-05 09:38 40.59829 -1.76523 27915 ft 372 kts 249°
2026-05-05 09:38 40.58927 -1.79693 27211 ft 367 kts 249°
2026-05-05 09:39 40.58039 -1.82816 26485 ft 363 kts 249°
2026-05-05 09:39 40.57155 -1.85910 25796 ft 360 kts 249°
2026-05-05 09:39 40.56275 -1.88971 25132 ft 356 kts 249°
2026-05-05 09:39 40.55399 -1.92008 24508 ft 353 kts 249°
2026-05-05 09:40 40.54824 -1.93997 24080 ft 351 kts 249°
2026-05-05 09:40 40.53960 -1.96979 23420 ft 348 kts 249°
2026-05-05 09:40 40.53102 -1.99935 22686 ft 345 kts 249°
2026-05-05 09:40 40.52251 -2.02878 21955 ft 344 kts 249°
2026-05-05 09:41 40.51385 -2.05807 21229 ft 344 kts 246°
2026-05-05 09:41 40.50247 -2.08566 20583 ft 344 kts 239°
2026-05-05 09:41 40.48986 -2.11259 20161 ft 348 kts 239°
2026-05-05 09:41 40.47715 -2.13972 19694 ft 349 kts 239°
2026-05-05 09:42 40.46445 -2.16684 19231 ft 349 kts 239°
2026-05-05 09:42 40.45173 -2.19407 18761 ft 350 kts 239°
2026-05-05 09:42 40.43905 -2.22122 18302 ft 348 kts 239°
2026-05-05 09:42 40.42643 -2.24818 17805 ft 346 kts 239°
2026-05-05 09:43 40.41378 -2.27513 17347 ft 347 kts 239°
2026-05-05 09:43 40.40110 -2.30210 16903 ft 347 kts 239°
2026-05-05 09:43 40.38840 -2.32905 16431 ft 348 kts 239°
2026-05-05 09:43 40.37570 -2.35602 15979 ft 348 kts 239°
2026-05-05 09:44 40.36298 -2.38305 15531 ft 348 kts 239°
2026-05-05 09:44 40.35028 -2.40997 15049 ft 347 kts 239°
2026-05-05 09:44 40.33771 -2.43666 14796 ft 338 kts 239°
2026-05-05 09:44 40.32559 -2.46238 14671 ft 325 kts 239°
2026-05-05 09:45 40.31395 -2.48707 14545 ft 313 kts 239°
2026-05-05 09:45 40.30272 -2.51086 14425 ft 302 kts 239°
2026-05-05 09:45 40.29185 -2.53386 14296 ft 292 kts 239°
2026-05-05 09:45 40.28131 -2.55612 14181 ft 283 kts 239°
2026-05-05 09:46 40.27107 -2.57766 14055 ft 275 kts 239°
2026-05-05 09:46 40.26289 -2.59965 13935 ft 265 kts 254°
2026-05-05 09:46 40.26037 -2.62312 13820 ft 258 kts 269°
2026-05-05 09:46 40.26042 -2.64630 13668 ft 252 kts 269°
2026-05-05 09:47 40.26042 -2.66917 13376 ft 251 kts 269°
2026-05-05 09:47 40.26037 -2.69199 13072 ft 250 kts 269°
2026-05-05 09:47 40.26028 -2.71470 12767 ft 250 kts 269°
2026-05-05 09:47 40.26019 -2.73737 12487 ft 248 kts 269°
2026-05-05 09:48 40.26010 -2.75985 12237 ft 246 kts 269°
2026-05-05 09:48 40.26000 -2.78221 11992 ft 245 kts 269°
2026-05-05 09:48 40.25990 -2.80445 11748 ft 245 kts 269°
2026-05-05 09:48 40.25981 -2.82641 11511 ft 244 kts 269°
2026-05-05 09:49 40.25973 -2.84861 11271 ft 244 kts 269°
2026-05-05 09:49 40.25963 -2.87074 11028 ft 243 kts 269°
2026-05-05 09:49 40.25953 -2.89291 10788 ft 243 kts 269°
2026-05-05 09:49 40.25943 -2.91504 10547 ft 243 kts 269°
2026-05-05 09:50 40.25931 -2.93716 10301 ft 243 kts 269°
2026-05-05 09:50 40.25660 -2.96002 10091 ft 260 kts 250°
2026-05-05 09:50 40.24976 -2.98148 9923 ft 253 kts 246°
2026-05-05 09:50 40.24253 -3.00221 9704 ft 247 kts 246°
2026-05-05 09:51 40.23546 -3.02226 9537 ft 238 kts 246°
2026-05-05 09:51 40.22865 -3.04165 9374 ft 231 kts 246°
2026-05-05 09:51 40.22201 -3.06065 9213 ft 229 kts 246°
2026-05-05 09:51 40.21514 -3.07949 9065 ft 230 kts 239°
2026-05-05 09:52 40.20572 -3.09629 8900 ft 229 kts 232°
2026-05-05 09:52 40.19550 -3.11222 8743 ft 228 kts 231°
2026-05-05 09:52 40.18523 -3.12795 8586 ft 226 kts 231°
2026-05-05 09:52 40.17499 -3.14360 8437 ft 227 kts 231°
2026-05-05 09:53 40.16477 -3.15930 8275 ft 227 kts 231°
2026-05-05 09:53 40.15455 -3.17498 8127 ft 227 kts 231°
2026-05-05 09:53 40.14435 -3.19062 8028 ft 227 kts 231°
2026-05-05 09:53 40.13416 -3.20627 8001 ft 225 kts 231°
2026-05-05 09:54 40.12217 -3.21941 8004 ft 228 kts 208°
2026-05-05 09:54 40.10668 -3.22331 8002 ft 233 kts 175°
2026-05-05 09:54 40.09177 -3.21566 8005 ft 240 kts 143°
2026-05-05 09:54 40.08160 -3.19832 8005 ft 246 kts 113°
2026-05-05 09:55 40.07866 -3.17646 7998 ft 247 kts 85°
2026-05-05 09:55 40.08369 -3.15531 8001 ft 246 kts 56°
2026-05-05 09:55 40.09548 -3.13964 8000 ft 243 kts 28°
2026-05-05 09:55 40.11119 -3.13265 7999 ft 238 kts
2026-05-05 09:56 40.12731 -3.13534 8003 ft 233 kts 335°
2026-05-05 09:56 40.14072 -3.14666 8004 ft 230 kts 313°
2026-05-05 09:56 40.15201 -3.16147 8002 ft 230 kts 312°
2026-05-05 09:56 40.16333 -3.17633 8007 ft 230 kts 312°
2026-05-05 09:57 40.17464 -3.19116 8000 ft 231 kts 312°
2026-05-05 09:57 40.18597 -3.20601 8001 ft 230 kts 312°
2026-05-05 09:57 40.19729 -3.22082 7997 ft 230 kts 312°
2026-05-05 09:57 40.20856 -3.23559 7865 ft 226 kts 312°
2026-05-05 09:58 40.21961 -3.25004 7643 ft 224 kts 312°
2026-05-05 09:58 40.23059 -3.26441 7376 ft 223 kts 312°
2026-05-05 09:58 40.24158 -3.27881 7096 ft 224 kts 312°
2026-05-05 09:58 40.25258 -3.29325 6798 ft 225 kts 312°
2026-05-05 09:59 40.26368 -3.30786 6504 ft 227 kts 312°
2026-05-05 09:59 40.27488 -3.32264 6199 ft 229 kts 312°
2026-05-05 09:59 40.28612 -3.33744 5941 ft 228 kts 311°
2026-05-05 09:59 40.29719 -3.35197 5790 ft 222 kts 312°
2026-05-05 10:00 40.30768 -3.36634 5651 ft 215 kts 312°
2026-05-05 10:00 40.31872 -3.37924 5552 ft 209 kts 317°
2026-05-05 10:00 40.32982 -3.39075 5448 ft 198 kts 319°
2026-05-05 10:00 40.34059 -3.40165 5206 ft 193 kts 319°
2026-05-05 10:01 40.35114 -3.41230 4959 ft 190 kts 319°
2026-05-05 10:01 40.36149 -3.42276 4712 ft 186 kts 320°
2026-05-05 10:01 40.37162 -3.43299 4479 ft 180 kts 319°
2026-05-05 10:01 40.38138 -3.44284 4216 ft 173 kts 319°
2026-05-05 10:02 40.39053 -3.45207 3998 ft 161 kts 318°
2026-05-05 10:02 40.39919 -3.46083 3780 ft 154 kts 318°
2026-05-05 10:02 40.40746 -3.46920 3576 ft 146 kts 318°
2026-05-05 10:02 40.41533 -3.47716 3398 ft 140 kts 318°
2026-05-05 10:03 40.42290 -3.48483 3196 ft 139 kts 319°
2026-05-05 10:03 40.43076 -3.49280 2993 ft 146 kts 321°
2026-05-05 10:03 40.43887 -3.50102 2791 ft 148 kts 321°
2026-05-05 10:03 40.44700 -3.50925 2597 ft 147 kts 322°
2026-05-05 10:04 40.45511 -3.51747 2404 ft 147 kts 321°
2026-05-05 10:04 40.46322 -3.52569 2212 ft 145 kts 319°
2026-05-05 10:04 40.47109 -3.53370 2005 ft 142 kts 319°
2026-05-05 10:04 40.47877 -3.54145 1932 ft 134 kts 319°
2026-05-05 10:05 40.48492 -3.54779 1940 ft 88 kts 321°
2026-05-05 10:05 40.48842 -3.55135 1952 ft 40 kts 322°
2026-05-05 10:05 40.49049 -3.55348 1954 ft 35 kts 322°
2026-05-05 10:05 40.49198 -3.55556 1958 ft 25 kts 298°
2026-05-05 10:06 40.49261 -3.55750 1964 ft 22 kts 289°
2026-05-05 10:06 40.49302 -3.55936 1960 ft 20 kts 270°
2026-05-05 10:06 40.49298 -3.56091 1958 ft 13 kts 262°
2026-05-05 10:06 40.49242 -3.56142 1959 ft 10 kts 179°
2026-05-05 10:07 40.49177 -3.56140 1959 ft 9 kts 180°
2026-05-05 10:07 40.49117 -3.56140 1959 ft 9 kts 179°
2026-05-05 10:07 40.49037 -3.56139 1959 ft 14 kts 179°
2026-05-05 10:07 40.48927 -3.56137 1959 ft 18 kts 179°
2026-05-05 10:08 40.48810 -3.56137 1959 ft 11 kts 184°
2026-05-05 10:08 40.48769 -3.56200 1961 ft 10 kts 265°
2026-05-05 10:08 40.48767 -3.56302 1963 ft 12 kts 270°
2026-05-05 10:08 40.48768 -3.56424 1967 ft 14 kts 270°
2026-05-05 10:09 40.48767 -3.56562 1970 ft 16 kts 269°
2026-05-05 10:09 40.48766 -3.56707 1976 ft 15 kts 269°
2026-05-05 10:09 40.48766 -3.56848 1980 ft 16 kts 270°
2026-05-05 10:09 40.48766 -3.56987 1979 ft 15 kts 269°
2026-05-05 10:10 40.48765 -3.57128 1982 ft 15 kts 269°
2026-05-05 10:10 40.48764 -3.57271 1985 ft 16 kts 270°
2026-05-05 10:10 40.48764 -3.57419 1988 ft 16 kts 270°
2026-05-05 10:10 40.48763 -3.57568 1990 ft 17 kts 269°
2026-05-05 10:11 40.48762 -3.57727 1992 ft 18 kts 269°
2026-05-05 10:11 40.48760 -3.57889 1997 ft 16 kts 257°
2026-05-05 10:11 40.48694 -3.57928 1999 ft 10 kts 176°
2026-05-05 10:11 40.48611 -3.57935 1999 ft 12 kts 210°
2026-05-05 10:12 40.48597 -3.58045 2003 ft 14 kts 271°
2026-05-05 10:12 40.48596 -3.58190 2005 ft 17 kts 270°
2026-05-05 10:12 40.48596 -3.58359 2011 ft 20 kts 270°
2026-05-05 10:12 40.48595 -3.58533 2018 ft 18 kts 270°
2026-05-05 10:13 40.48595 -3.58695 2030 ft 18 kts 268°
2026-05-05 10:13 40.48629 -3.58809 2028 ft 13 kts 345°
2026-05-05 10:13 40.48729 -3.58810 2032 ft 15 kts 360°
2026-05-05 10:13 40.48840 -3.58811 2022 ft 17 kts 360°
2026-05-05 10:14 40.48964 -3.58812 2022 ft 19 kts 360°
2026-05-05 10:14 40.49098 -3.58814 2022 ft 20 kts 360°
2026-05-05 10:14 40.49228 -3.58814 2022 ft 16 kts 359°
2026-05-05 10:14 40.49300 -3.58821 2025 ft 7 kts 329°
2026-05-05 10:15 40.49310 -3.58876 2028 ft 6 kts 271°
2026-05-05 10:15 40.49310 -3.58920 2024 ft 4 kts 270°
2026-05-05 10:15 40.49310 -3.58952 2022 ft 3 kts 270°
2026-05-05 10:15 40.49309 -3.58967 2029 ft 0 kts 269°